This demonstration page uses our WeatherBlox Daily Observations layout. Learn more.

Left ArrowRight Arrow

39.29038, -76.61219

Hourly Observations for October 21, 2020

Temp ( °F °C ) Dew Point ( °F °C ) Humidity (%) Winds ( mph kmh ) Pressure ( in mb ) Visibility ( mi km ) Precip ( " mm )
12:54 am 00:54 Mostly Clear 58 14.4 56 13.3 93 93 Calm 30.23 1024 8 13 0.00 0.00
1:20 am 01:20 Mostly Cloudy with Mist and Fog 59 15 57 13.9 93 93 Calm 30.22 1023 2 3 0.00 0.00
1:25 am 01:25 Mostly Cloudy with Mist and Fog 59 15 57 13.9 93 93 Calm 30.22 1023 1 1 0.00 0.00
1:36 am 01:36 Mostly Cloudy with Fog 61 16.1 59 15 93 93 SSE 3 6 30.22 1023 1 2 0.00 0.00
1:54 am 01:54 Mostly Cloudy with Fog 60 15.6 59 15 96 96 Calm 30.22 1023 1 2 0.00 0.00
4:54 am 04:54 Mostly Cloudy with Fog 61 16.1 59 15 93 93 Calm 30.23 1024 0 0 0.00 0.00
5:56 am 05:56 Mostly Cloudy with Fog 62 16.7 60 15.6 93 93 Calm 30.23 1024 0 0 0.00 0.00
7:54 am 07:54 Mostly Cloudy with Fog 63 17.2 61 16.1 93 93 Calm 30.26 1025 0 0 0.00 0.00
8:07 am 08:07 Mostly Cloudy with Fog 63 17.2 62 16.7 97 97 Calm 30.26 1025 0 0 0.00 0.00
8:18 am 08:18 Mostly Cloudy with Fog 63 17.2 62 16.7 97 97 Calm 30.26 1025 0 0 0.00 0.00
8:24 am 08:24 Mostly Cloudy with Drizzle 63 17.2 62 16.7 97 97 Calm 30.27 1025 1 2 0.00 0.00
8:44 am 08:44 Mostly Cloudy with Drizzle 64 17.8 62 16.7 93 93 Calm 30.27 1025 0 0 0.00 0.00
8:54 am 08:54 Mostly Cloudy with Drizzle 64 17.8 63 17.2 96 96 Calm 30.27 1025 0 0 0.00 0.00
9:54 am 09:54 Cloudy with Fog 66 18.9 64 17.8 93 93 Calm 30.28 1025 0 0 0.00 0.00
10:15 am 10:15 Cloudy with Mist and Fog 66 18.9 65 18.3 96 96 S 5 7 30.28 1025 1 2 0.00 0.00
10:31 am 10:31 Cloudy with Mist and Fog 66 18.9 65 18.3 96 96 S 5 7 30.28 1025 3 5 0.00 0.00
10:54 am 10:54 Cloudy with Mist and Fog 67 19.4 65 18.3 93 93 SSW 7 11 30.27 1025 3 5 0.00 0.00
11:54 am 11:54 Cloudy with Mist and Fog 68 20 65 18.3 90 90 SSW 5 7 30.27 1025 3 5 0.00 0.00
12:20 pm 12:20 Cloudy with Mist and Fog 69 20.6 65 18.3 87 87 S 5 7 30.26 1025 4 6 0.00 0.00
12:54 pm 12:54 Cloudy with Mist and Fog 70 21.1 66 18.9 87 87 Calm 30.24 1024 6 10 0.00 0.00
1:18 pm 13:18 Cloudy 72 22.2 66 18.9 82 82 SSE 5 7 30.21 1023 7 11 0.00 0.00
1:54 pm 13:54 Partly Cloudy 74 23.3 66 18.9 76 76 Calm 30.21 1023 10 16 0.00 0.00
1:57 pm 13:57 Mostly Cloudy 73 22.8 66 18.9 79 79 SSW 5 7 30.20 1023 10 16 0.00 0.00
2:25 pm 14:25 Mostly Cloudy 76 24.4 67 19.4 74 74 E 3 6 30.19 1022 10 16 0.00 0.00
2:54 pm 14:54 Mostly Cloudy 76 24.4 66 18.9 72 72 SE 5 7 30.19 1022 10 16 0.00 0.00
3:54 pm 15:54 Mostly Cloudy 78 25.6 65 18.3 64 64 SW 9 15 30.17 1022 10 16 0.00 0.00
4:54 pm 16:54 Partly Cloudy 78 25.6 65 18.3 64 64 WSW 6 9 30.17 1022 10 16 0.00 0.00
5:54 pm 17:54 Mostly Sunny 73 22.8 65 18.3 76 76 W 3 6 30.19 1022 10 16 0.00 0.00
6:54 pm 18:54 Mostly Clear 71 21.7 64 17.8 79 79 Calm 30.20 1023 10 16 0.00 0.00
7:54 pm 19:54 Clear 68 20 64 17.8 87 87 Calm 30.21 1023 10 16 0.00 0.00
8:54 pm 20:54 Mostly Clear 67 19.4 63 17.2 87 87 Calm 30.21 1023 10 16 0.00 0.00
9:54 pm 21:54 Clear with Mist and Fog 63 17.2 62 16.7 97 97 Calm 30.22 1023 6 10 0.00 0.00
10:54 pm 22:54 Mostly Clear with Mist and Fog 62 16.7 62 16.7 100 100 Calm 30.22 1024 4 6 0.00 0.00
11:54 pm 23:54 Mostly Clear with Patchy Fog 62 16.7 60 15.6 93 93 Calm 30.22 1023 7 11 0.00 0.00

Powered by AerisWeather